Meteo Giornale » Osservazioni meteo Italia » Cagliari-Elmas

ore: 19:20 - Osservazioni Meteo Cagliari-Elmas
Lat. 39° 15' N Lon. 9° 4' E Alt. 4 metri s.l.m.

sereno Europe/Rome

11 °C

Sereno

Temp. 24 Ore

9 °C

15 °C

Ovest/Nord-Ovest

13 Km/h

Dew point 4 °C

Umidità 61 %

Visibilità  10 Km

Il sole sorge alle ore 07:33

Il sole tramonta alle ore 17:02

Data e Ora Cielo e Fenomeni T °C DP °C Um. % Pres. hPa Vis. km Vento km/h
Oggi h: 19:20 sereno Sereno 11 4 61 1024 10 O/NO 13
Oggi h: 18:50 sereno Sereno 9 4 70 1024 10 N/NO 9.3
Oggi h: 18:20 sereno Sereno 10 4 66 1023 10 NO 11.1
Oggi h: 17:50 sereno Sereno 11 4 61 1023 10 NO 9.3
Oggi h: 17:20 sereno Sereno 12 4 57 1023 10 NO 13
Oggi h: 16:50 sereno Sereno 13 3 50 1023 10 NO 14.8
Oggi h: 16:20 sereno Sereno 13 3 50 1023 10 NO 20.3
Oggi h: 15:50 sereno Sereno 14 3 47 1023 10 N/NO 22.2
Oggi h: 15:20 poco_nuvoloso Poco Nuvoloso 14 4 50 1022 10 N/NO 25.9
Oggi h: 14:50 poco_nuvoloso Poco Nuvoloso 15 5 51 1022 10 NO 24
Oggi h: 14:20 poco_nuvoloso Poco Nuvoloso 15 5 51 1022 10 N/NO 22.2
Oggi h: 13:50 nuvoloso Nuvoloso 15 5 51 1022 10 NO 20.3
Oggi h: 13:20 nuvoloso Nuvoloso 15 5 51 1022 10 N/NO 20.3
Oggi h: 12:20 nuvoloso Nuvoloso 15 7 58 1023 10 NO 22.2
Oggi h: 11:50 nuvoloso Nuvoloso 14 8 67 1023 10 NO 25.9
Oggi h: 11:20 nuvoloso Nuvoloso 14 9 71 1023 10 N/NO 27.8
Oggi h: 10:50 nuvoloso Nuvoloso 14 9 71 1023 10 N/NO 24
Oggi h: 10:20 nuvoloso Nuvoloso 13 10 81 1023 10 NO 14.8
Oggi h: 09:50 nuvoloso Nuvoloso 13 10 81 1023 10 NO 14.8
Oggi h: 09:20 nuvoloso Nuvoloso 12 10 87 1022 10 NO 13
Oggi h: 08:50 nuvoloso Nuvoloso 12 10 87 1022 10 NO 11.1
Oggi h: 08:20 nuvoloso Nuvoloso 11 10 93 1021 10 NO 9.3
Oggi h: 07:50 nuvoloso Nuvoloso 11 9 87 1021 10 N/NO 7.4
Oggi h: 07:20 nuvoloso Nuvoloso 11 10 93 1021 10 N/NO 7.4
Oggi h: 06:50 nuvoloso Nuvoloso 11 10 93 1020 10 N 5.5
Oggi h: 06:20 coperto_pioggia Pioggia Debole 12 10 87 1020 10 N 5.5
Oggi h: 05:50 coperto_pioggia Pioggia Debole 12 11 93 1020 10 N/NO 7.4
Oggi h: 05:20 nuvoloso Nuvoloso 12 11 93 1020 10 N 5.5
Oggi h: 04:50 poco_nuvoloso Poco Nuvoloso 12 11 93 1019 10 N/NO 7.4
Oggi h: 04:20 coperto_pioggia Pioggia Debole 12 11 93 1019 10 NO 7.4
Oggi h: 03:50 sereno Sereno 13 11 87 1019 10 NO 13
Oggi h: 03:20 sereno Sereno 13 11 87 1019 10 N 11.1
Oggi h: 02:50 sereno Sereno 13 11 87 1019 10 N 13
Oggi h: 02:20 poco_nuvoloso Poco Nuvoloso 13 11 87 1019 10 N/NO 7.4
Oggi h: 01:50 coperto_pioggia Pioggia Debole 13 11 87 1019 10 N/NO 9.3
Oggi h: 01:20 coperto_pioggia Pioggia Debole 13 11 87 1019 10 N/NO 13
Oggi h: 00:50 coperto_pioggia Pioggia Debole 13 11 87 1019 10 N 11.1
Oggi h: 00:20 sereno Sereno 13 11 87 1019 10 N/NO 7.4
Ieri h: 23:50 poco_nuvoloso Poco Nuvoloso 14 11 82 1018 10 N/NE 7.4
Ieri h: 23:20 sereno Sereno 14 11 82 1018 10 N/NE 7.4
Ieri h: 22:50 poco_nuvoloso Poco Nuvoloso 14 11 82 1018 10 N/NO 13
Ieri h: 22:20 nuvoloso Nuvoloso 14 11 82 1018 10 N/NO 18.5
Ieri h: 21:50 nuvoloso Nuvoloso 13 11 87 1018 10 N/NO 14.8
Ieri h: 21:20 nuvoloso Nuvoloso 14 11 82 1018 10 N/NO 13
Ieri h: 20:50 poco_nuvoloso Poco Nuvoloso 14 11 82 1017 10 N/NO 16.7
Ieri h: 20:20 sereno Sereno 14 12 87 1017 10 NO 9.3
Ieri h: 19:50 sereno Sereno 14 11 82 1017 10 N 3.7
Ieri h: 19:20 sereno Sereno 14 11 82 1016 10 N 5.5
Ieri h: 18:50 nuvoloso Nuvoloso 14 12 87 1016 10 NO 7.4